CAPE
0 0 0 0 0 0 0 0 0 0 0 0 0 1 3 2 0 0 0 0 0 0 0 0 0 0 0 0 0 0 0 10 25 126 145 105 239 325 475 773 498 863 468 191 204
0 0 0 0 0 0 0 0 0 0 0 0 0 2 2 3 0 0 0 0 0 0 0 0 0 0 0 0 0 0 3 10 9 74 96 102 273 298 462 517 405 309 189 96 223
0 0 0 0 0 0 0 0 0 0 0 0 0 1 1 1 0 0 0 0 0 0 0 0 0 0 0 0 0 0 1 6 33 22 54 84 225 308 350 423 374 368 260 196 195
0 0 0 0 0 0 0 0 0 0 0 0 0 0 0 0 0 0 0 0 0 0 0 0 0 0 0 0 0 26 296 202 53 12 41 200 255 190 268 252 249 249 257 260 264
0 0 0 0 0 0 0 0 0 0 0 0 0 0 0 0 0 0 85 1 0 0 0 0 0 0 0 0 0 385 281 155 125 81 114 144 173 324 222 113 59 147 157 130 90
0 0 0 0 0 0 0 0 0 0 0 0 0 0 0 0 0 0 0 0 0 0 0 0 0 0 0 0 0 242 229 155 133 125 80 54 36 63 35 38 3 13 62 54 14
0 0 0 0 0 0 0 0 0 0 0 0 0 0 0 0 0 0 0 0 0 0 0 0 0 0 0 7 86 191 310 243 86 64 25 7 38 30 18 44 58 25 78 79 23
0 0 0 0 0 0 0 0 0 0 0 0 0 0 0 0 0 0 0 0 0 0 0 0 0 0 0 30 6 230 359 465 51 0 4 0 109 9 13 15 3 32 83 108 58
0 0 0 0 0 0 0 0 0 0 0 0 0 0 0 0 0 0 0 0 0 0 0 0 0 0 0 5 133 19 469 144 68 0 0 0 96 24 5 20 21 42 63 11 0
0 0 0 0 0 0 0 0 0 0 0 0 0 0 0 0 0 0 0 0 0 0 0 0 0 0 0 0 0 47 1 14 163 1 0 4 95 21 1 13 27 19 3 0 0
0 0 0 0 0 0 0 0 0 0 0 0 0 0 0 0 0 0 0 0 0 0 0 0 0 0 0 0 0 0 0 21 0 0 0 17 94 36 12 14 35 56 22 10 0
0 0 0 0 0 0 0 0 0 0 0 0 0 0 0 0 0 0 0 0 0 0 0 0 0 0 0 0 0 0 0 4 8 0 0 33 59 38 9 34 64 58 9 6 0
0 0 0 0 0 0 0 0 0 0 0 0 0 0 0 0 0 0 0 0 0 0 0 0 0 0 0 0 0 0 0 16 29 0 0 7 6 4 26 69 80 67 57 38 21
0 0 0 0 0 0 0 0 0 0 0 0 0 0 0 0 0 0 0 0 0 0 0 0 0 0 0 0 0 0 0 7 9 2 9 0 63 0 39 120 123 115 124 59 0
0 0 0 0 0 0 0 0 0 0 0 0 0 0 0 0 0 0 0 0 0 0 0 0 0 0 0 0 0 0 0 4 0 0 2 0 5 0 14 112 138 180 37 0 0
0 0 0 0 0 0 0 0 0 0 0 0 0 0 0 0 0 0 0 0 0 0 0 0 0 0 0 0 0 0 0 0 0 7 31 0 35 217 97 64 80 173 0 0 0
0 0 1 0 0 0 0 0 0 0 0 0 0 0 0 0 0 0 0 0 0 0 0 0 0 0 0 0 0 0 12 13 12 23 19 15 42 148 123 138 25 136 0 0 0
0 0 0 0 0 0 0 0 0 0 0 0 0 0 0 0 0 0 0 0 0 0 0 0 0 0 0 0 0 1 0 10 5 14 31 53 126 303 21 0 23 1 0 0 0
0 0 0 0 0 0 0 0 0 0 0 0 0 0 0 0 0 0 0 0 0 0 0 0 0 0 0 0 0 0 0 0 34 4 62 116 107 53 0 0 0 0 0 0 0
1 0 0 0 0 0 0 0 0 0 0 0 0 0 0 0 0 0 0 0 0 0 0 0 0 0 0 0 0 0 0 11 70 114 61 27 76 251 0 0 0 0 0 0 0
0 0 0 0 0 0 0 0 0 0 0 0 0 0 0 0 0 0 0 0 0 0 0 0 0 0 0 0 0 0 0 0 25 35 11 26 41 0 42 0 0 0 0 0 0
0 0 0 0 0 0 0 0 0 0 0 0 0 0 0 0 0 0 0 0 0 0 0 0 0 0 0 0 0 0 0 9 5 7 12 25 0 0 0 0 0 0 0 0 0
0 0 0 0 0 0 0 0 0 0 0 0 0 0 0 0 0 0 0 0 0 0 0 0 2 0 0 0 0 0 0 0 0 0 17 0 0 0 0 0 0 0 0 0 0
0 0 0 0 0 0 0 0 0 0 0 0 0 0 0 0 0 1 0 0 0 0 0 22 0 29 49 8 0 0 0 0 0 0 0 0 0 0 0 0 0 0 0 0 0
0 0 0 0 0 0 0 0 0 0 0 0 0 0 0 0 2 0 0 87 15 0 0 18 4 0 0 0 0 0 0 0 0 0 0 0 0 0 0 0 0 0 0 0 0
0 0 0 0 0 0 0 0 0 0 0 0 0 0 0 35 98 178 15 23 146 0 0 0 0 0 0 0 0 0 0 0 0 0 0 0 0 0 0 0 0 0 0 0 0
0 0 0 0 0 0 0 0 0 0 0 0 0 0 1 100 98 8 52 0 0 4 1 0 12 0 0 0 0 0 0 0 0 0 0 0 0 0 0 0 0 0 0 0 0
CIN
0 0 0 0 0 0 0 0 0 0 0 0 0 0 0 0 0 0 0 0 0 0 0 0 0 0 0 0 0 0 0 -57 -129 -68 -173 -248 -199 -282 -264 -175 -215 -125 -153 -210 -213
0 0 0 0 0 0 0 0 0 0 0 0 0 0 0 0 0 0 0 0 0 0 0 0 0 0 0 0 0 0 -5 -93 -48 -174 -149 -244 -182 -256 -204 -187 -201 -217 -247 -283 -187
0 0 0 0 0 0 0 0 0 0 0 0 0 0 0 0 0 0 0 0 0 0 0 0 0 0 0 0 0 0 -13 -77 -269 -213 -193 -254 -204 -239 -164 -166 -205 -166 -205 -199 -195
0 0 0 0 0 0 0 0 0 0 0 0 0 0 0 0 0 0 0 0 0 0 0 0 0 0 0 0 0 -164 -264 -187 -243 -272 -203 -205 -228 -238 -208 -191 -211 -202 -181 -155 -133
0 0 0 0 0 0 0 0 0 0 0 0 0 0 0 0 0 0 -781 -113 0 0 0 0 0 0 0 0 0 -176 -250 -279 -256 -234 -237 -229 -232 -215 -214 -243 -257 -239 -205 -192 -176
0 0 0 0 0 0 0 0 0 0 0 0 0 0 0 0 0 0 0 0 0 0 0 0 0 0 0 0 0 -289 -259 -270 -235 -233 -244 -227 -257 -230 -275 -229 -96 -235 -207 -177 -167
0 0 0 0 0 0 0 0 0 0 0 0 0 0 0 0 0 0 0 0 0 0 0 0 0 0 0 -103 -356 -261 -185 -194 -235 -235 -257 -212 -203 -238 -291 -192 -150 -194 -140 -103 -159
0 0 0 0 0 0 0 0 0 0 0 0 0 0 0 0 0 0 0 0 0 0 0 0 0 0 0 -324 -48 -183 -122 -59 -229 0 -239 0 -160 -271 -253 -211 -163 -190 -157 -124 -131
0 0 0 0 0 0 0 0 0 0 0 0 0 0 0 0 0 0 0 0 0 0 0 0 0 0 0 -144 -134 -113 -68 -155 -179 -9 0 0 -192 -228 -149 -182 -171 -176 -154 -96 -15
0 0 0 0 0 0 0 0 0 0 0 0 0 0 0 0 0 0 0 0 0 0 0 0 0 0 0 0 0 -99 -23 -186 -126 -13 0 -284 -227 -240 -63 -193 -165 -171 -194 -57 0
0 0 0 0 0 0 0 0 0 0 0 0 0 0 0 0 0 0 0 0 0 0 0 0 0 0 0 0 0 0 0 -111 0 0 0 -286 -214 -234 -227 -206 -167 -147 -153 -130 0
0 0 0 0 0 0 0 0 0 0 0 0 0 0 0 0 0 0 0 0 0 0 0 0 0 0 0 0 0 0 0 -154 -341 0 -16 -278 -257 -277 -195 -221 -155 -137 -126 -112 0
0 0 0 0 0 0 0 0 0 0 0 0 0 0 0 0 0 0 0 0 0 0 0 0 0 0 0 0 0 0 0 -300 -240 0 0 -293 -158 -322 -249 -196 -175 -128 -86 -59 -46
0 0 0 0 0 0 0 0 0 0 0 0 0 0 0 0 0 0 0 0 0 0 0 0 0 0 0 0 0 0 0 -275 -364 -173 -182 0 -88 0 -249 -202 -159 -96 -61 -65 0
0 0 0 0 0 0 0 0 0 0 0 0 0 0 0 0 0 0 0 0 0 0 0 0 0 0 0 0 0 0 0 -240 0 0 -34 -8 -93 0 -288 -214 -152 -104 -165 0 0
0 0 0 0 0 0 0 0 0 0 0 0 0 0 0 0 0 0 0 0 0 0 0 0 0 0 0 0 -121 0 0 0 0 -136 -43 0 -93 -99 -226 -226 -172 -115 0 0 0
0 0 0 0 0 0 0 0 0 0 0 0 0 0 0 0 0 0 0 0 0 0 0 0 0 0 0 0 0 0 -97 -39 -38 -30 -21 -204 -92 -102 -188 -156 -182 -107 0 0 0
0 0 0 0 0 0 0 0 0 0 0 0 0 0 0 0 0 0 0 0 0 0 0 0 0 0 0 0 0 -19 0 -10 -14 -24 -27 -175 -55 -105 -23 0 -232 -30 0 0 0
0 0 0 0 0 0 0 0 0 0 0 0 0 0 0 0 0 0 0 0 0 0 0 0 0 0 0 0 0 0 0 0 -158 -258 -59 -84 -177 -271 0 0 0 0 0 0 0
0 0 0 0 0 0 0 0 0 0 0 0 0 0 0 0 0 0 0 0 0 0 0 0 0 0 0 0 0 0 0 -27 -80 -40 -19 -101 -124 -51 0 0 0 0 0 0 0
0 0 0 0 0 0 0 0 0 0 0 0 0 0 0 0 0 0 0 0 0 0 0 0 0 0 0 0 0 0 0 0 -169 -127 -12 -17 -33 0 -190 0 0 0 0 0 0
0 0 0 0 0 0 0 0 0 0 0 0 0 0 0 0 0 0 0 0 0 0 0 0 0 0 0 0 0 0 0 -113 -16 -89 -135 -81 0 0 -3 0 0 0 0 0 0
0 0 0 0 0 0 0 0 0 0 0 0 0 0 0 0 0 0 0 0 0 0 0 0 -15 0 0 0 0 0 0 0 0 0 -122 -21 0 0 0 0 0 0 0 0 0
0 0 0 0 0 0 0 0 0 0 0 0 0 0 0 0 0 -43 0 0 0 0 0 -257 0 -108 -61 -28 0 0 0 0 0 0 0 0 0 0 0 0 0 0 0 0 0
0 0 0 0 0 0 0 0 0 0 0 0 0 0 0 0 -103 0 0 -164 -293 0 0 -360 -155 0 0 0 0 0 0 0 0 0 0 0 0 0 0 0 0 0 0 0 0
0 0 0 0 0 0 0 0 0 0 0 0 0 0 -4 -141 -164 -140 -214 -182 -105 -1 0 0 0 0 0 0 0 0 0 0 0 0 0 0 0 0 0 0 0 0 0 0 0
0 0 0 0 0 0 0 0 0 0 0 0 0 0 -55 -164 -270 -241 -353 0 0 -118 -478 0 -241 0 0 0 0 0 0 0 0 0 0 0 0 0 0 0 0 0 0 0 0
Wind_Speed
16 16 16 17 16 19 19 18 17 17 17 17 16 13 13 11 7 3 6 3 3 15 8 9 1 2 3 4 2 2 4 7 7 12 7 8 2 5 3 10 5 4 5 14 12
16 16 16 16 17 18 20 20 18 19 19 18 16 13 12 7 2 7 4 4 11 14 9 10 6 4 1 2 2 2 2 4 4 7 12 8 6 4 4 11 8 11 13 12 8
18 18 18 17 18 18 20 20 20 19 20 18 16 12 9 2 2 0 2 10 12 6 7 5 6 1 1 1 2 3 4 6 8 15 14 12 9 4 8 6 5 11 12 12 14
17 19 20 20 20 20 21 22 22 22 20 18 15 10 6 1 2 2 4 9 12 5 7 7 4 3 1 4 3 4 8 4 10 10 10 8 8 9 8 7 12 14 14 15 13
14 17 20 21 21 21 21 23 22 22 21 16 12 6 2 1 3 3 9 10 8 5 6 5 4 4 3 4 5 7 7 10 15 18 17 16 12 12 13 9 13 17 15 14 12
14 16 18 20 21 22 23 22 21 22 20 14 7 1 1 2 2 5 11 11 8 6 5 4 3 4 5 5 4 8 16 12 12 14 9 17 10 3 7 10 14 15 14 11 12
16 17 19 21 23 24 25 24 21 20 17 7 2 2 2 1 1 6 8 2 4 6 5 4 3 2 6 9 9 12 15 12 8 6 8 9 6 7 10 10 12 12 11 9 9
17 19 21 22 23 25 27 24 23 17 7 3 6 2 4 1 4 6 3 3 1 2 2 4 3 4 4 16 6 8 6 8 6 5 5 3 6 8 11 11 10 11 11 9 7
16 19 21 23 25 26 29 24 17 5 1 5 2 1 1 3 3 5 5 4 4 2 3 5 3 5 9 13 8 1 8 6 10 7 4 3 7 9 12 11 11 10 10 9 5
15 17 21 23 25 27 30 20 3 2 4 3 3 2 2 2 1 4 5 6 4 7 4 3 3 6 5 9 7 11 6 8 13 13 5 8 7 12 13 12 11 10 8 9 7
14 16 19 22 26 28 16 3 6 1 6 5 3 4 4 6 3 4 5 5 4 3 5 3 5 11 19 13 4 11 9 13 5 4 9 7 12 12 13 12 11 11 9 8 7
14 16 19 22 25 23 5 7 4 5 11 6 9 8 7 2 3 3 9 6 4 5 6 4 8 6 8 10 8 8 13 8 8 8 3 10 8 7 12 14 13 11 10 9 9
13 16 19 23 26 4 3 8 3 5 5 6 5 4 2 10 6 5 11 5 4 6 7 6 3 10 6 7 8 7 8 15 10 9 6 13 5 7 10 11 12 11 11 9 9
12 14 16 26 1 6 3 1 7 6 3 3 1 2 5 4 4 5 9 5 3 8 6 5 7 8 8 7 9 8 7 17 22 11 5 11 3 10 12 14 12 11 11 7 9
11 12 12 6 7 6 5 10 5 3 1 3 2 3 4 5 5 6 3 3 7 7 5 4 10 8 7 5 11 6 13 17 14 8 9 10 6 4 10 14 14 9 8 9 9
12 11 9 1 4 8 10 11 3 3 2 3 2 3 6 1 2 3 4 2 3 4 3 4 1 4 2 7 12 20 22 12 7 3 5 5 4 6 9 15 14 11 9 11 11
11 13 6 2 4 2 7 3 2 3 2 1 1 1 4 7 5 4 7 8 7 7 6 3 5 4 17 17 8 8 7 4 3 4 3 2 6 2 9 5 13 16 13 12 12
12 16 6 6 3 3 3 2 4 1 3 3 2 4 6 8 6 5 8 10 5 4 3 6 5 11 10 6 11 14 2 4 7 5 2 2 6 4 2 2 9 15 15 13 12
15 2 4 2 4 5 3 3 4 4 2 6 6 2 4 5 4 5 9 13 10 11 5 5 2 3 2 5 10 7 7 5 8 2 3 3 2 6 7 7 13 16 16 15 12
5 4 4 2 7 3 2 4 3 3 4 1 2 2 5 4 7 9 9 7 10 14 11 1 2 3 5 3 13 4 11 5 3 6 5 4 7 9 11 12 14 16 16 15 13
2 5 3 3 4 2 4 5 4 6 4 3 2 3 3 3 5 5 7 4 12 9 12 5 2 2 2 3 7 7 5 6 5 2 3 3 4 3 14 17 18 17 16 16 14
2 4 3 2 3 1 3 4 2 4 2 4 3 5 3 1 3 5 7 4 6 12 11 4 3 3 2 2 1 3 4 5 4 6 0 2 1 4 7 15 16 16 15 14 12
2 3 1 3 4 3 2 3 3 3 3 2 3 4 3 2 2 6 4 0 7 11 12 9 1 4 2 4 3 2 3 4 7 3 6 3 2 5 8 16 15 18 16 14 13
2 2 1 2 1 2 2 1 3 3 5 4 4 4 4 2 3 3 3 1 3 3 5 6 4 3 6 3 3 6 8 4 2 3 6 4 1 7 11 17 17 17 16 15 14
1 0 3 3 4 3 2 1 1 5 3 3 3 2 5 1 2 4 2 3 4 6 4 2 5 2 7 3 2 7 9 5 3 7 2 2 4 10 16 18 18 17 16 15 14
2 1 1 3 3 3 4 2 2 3 4 3 3 7 6 2 2 4 2 1 1 3 2 1 3 1 6 5 5 7 6 9 7 5 3 3 3 2 12 14 16 18 17 16 14
1 0 2 1 1 3 3 3 3 3 8 12 9 8 7 2 4 10 8 1 3 2 3 4 6 3 2 4 4 5 5 3 4 3 4 4 2 16 16 18 19 18 17 15 14
Wind_Direction
351 349 347 340 336 325 324 325 328 324 322 319 323 333 324 334 321 208 233 184 164 145 119 122 140 193 197 134 129 166 158 142 140 150 131 134 88 50 85 112 63 72 106 109 114
347 342 341 338 331 324 324 324 328 323 322 321 324 331 326 332 276 249 248 162 139 155 120 140 162 185 137 39 95 19 143 86 71 120 132 117 105 71 89 107 92 95 107 123 93
342 342 339 337 331 328 323 325 325 323 320 320 323 329 315 319 289 119 89 160 158 156 126 133 142 259 60 47 75 62 52 126 68 110 121 121 91 78 102 71 133 128 119 114 112
341 337 334 334 334 330 326 325 321 322 318 322 319 328 309 194 104 125 112 157 147 130 118 128 145 164 150 137 70 114 53 91 121 112 110 91 100 76 64 94 113 110 113 117 122
336 335 331 330 330 327 323 319 319 319 317 322 313 318 246 258 254 20 137 134 143 155 150 146 159 146 168 107 105 98 98 74 99 90 94 96 83 91 87 107 116 118 120 120 112
335 334 330 328 328 324 320 317 319 314 316 318 303 263 249 209 31 128 133 143 161 154 146 135 179 164 94 63 29 113 104 100 87 88 109 106 96 73 107 132 131 127 125 125 119
336 334 331 329 327 325 320 319 316 312 313 316 194 186 264 319 337 141 148 136 174 166 157 163 180 226 118 106 129 118 103 96 70 99 114 102 66 102 133 149 147 141 133 129 134
338 335 331 329 327 323 318 320 312 311 324 147 173 194 248 17 125 143 185 93 210 210 51 99 145 91 85 130 101 108 115 141 173 134 124 338 125 132 149 157 155 155 151 152 147
338 333 329 328 326 323 317 320 316 329 126 156 209 316 245 124 210 176 188 153 150 201 38 102 54 88 129 131 119 123 159 163 178 202 136 214 140 167 169 170 170 177 166 143 153
337 331 325 327 326 324 319 310 263 288 209 227 244 230 195 133 273 152 189 164 165 143 126 134 113 143 144 190 176 177 164 180 187 197 207 183 168 169 180 181 188 188 174 163 163
336 331 326 328 326 324 332 357 360 353 24 286 304 290 279 300 240 189 169 167 133 163 168 125 198 188 189 206 176 157 150 163 156 175 186 201 157 172 182 193 200 201 187 186 168
333 331 329 329 326 322 312 64 71 311 304 271 246 260 272 350 335 209 153 163 164 164 137 155 228 199 155 170 162 156 146 126 98 143 147 155 145 171 189 205 214 210 200 201 165
329 329 330 332 323 7 348 114 343 189 256 295 219 223 210 171 200 222 178 145 157 156 183 190 153 150 166 176 181 203 191 167 138 129 120 146 150 195 197 221 222 227 228 215 186
324 326 332 329 35 339 292 54 324 196 303 277 215 180 150 205 202 200 188 150 160 188 169 227 166 205 179 202 198 216 167 151 141 156 161 215 177 214 202 208 217 227 229 186 125
316 320 333 349 310 299 337 335 341 211 41 17 115 106 134 203 130 198 183 125 176 164 182 199 178 167 218 238 181 64 140 136 144 107 138 190 253 121 197 212 210 205 160 139 123
309 310 339 160 274 257 318 317 205 243 249 8 114 157 163 230 134 112 166 178 145 164 221 250 304 207 186 38 109 125 115 104 101 140 236 150 255 184 194 219 203 182 153 139 135
305 299 296 267 257 20 319 307 212 240 339 50 77 148 207 184 189 146 177 180 176 182 226 221 214 124 119 100 133 164 151 107 157 203 264 63 214 350 188 197 204 175 152 146 145
311 302 248 222 247 291 290 191 225 253 270 4 350 276 204 172 197 159 169 201 221 190 167 202 198 173 181 185 179 173 158 173 198 204 178 128 237 129 52 298 184 152 147 145 147
314 292 265 253 203 199 203 208 226 210 324 330 317 201 207 207 202 173 195 208 220 199 226 176 203 122 170 169 156 178 214 92 109 54 205 199 249 180 140 119 145 147 151 153 148
323 308 263 335 161 194 180 245 253 232 314 298 274 275 187 176 186 194 178 188 209 203 208 214 175 73 161 123 49 175 130 157 135 160 225 218 270 237 191 168 163 161 161 153 151
313 302 20 167 180 201 213 234 267 257 242 224 274 287 256 154 203 198 202 201 201 179 197 189 294 111 205 7 152 148 158 66 95 315 230 203 223 344 199 180 173 169 165 160 158
324 271 59 264 177 309 190 208 265 279 275 262 245 245 258 26 226 227 216 243 182 152 178 178 110 86 63 37 248 71 137 158 230 176 89 302 159 348 246 176 168 166 165 162 156
283 285 32 264 201 195 233 249 258 274 279 305 270 211 247 265 228 215 208 136 175 164 164 175 156 113 98 161 151 112 91 103 102 125 175 244 101 32 141 158 170 165 165 162 155
274 275 227 199 318 264 192 238 266 304 262 268 284 307 280 248 200 284 218 69 136 118 78 99 110 185 178 173 113 145 136 142 122 180 153 237 168 167 165 165 168 169 165 162 163
261 211 340 182 203 252 296 332 323 319 277 262 239 247 286 314 319 232 186 153 103 155 65 110 114 116 44 337 127 133 150 154 125 129 288 60 216 184 182 176 173 166 165 165 166
256 240 165 289 289 214 195 217 241 279 251 235 232 345 289 166 197 284 28 45 230 115 107 339 107 305 63 15 143 110 109 120 114 132 115 166 207 166 155 161 169 173 171 173 172
123 242 275 342 292 212 207 210 244 350 258 253 294 315 289 297 292 292 243 340 268 188 105 81 131 87 107 358 143 138 161 125 139 174 164 196 99 151 163 178 180 175 179 177 173